Location: Newark
(54.2500°N, 9.1833°E)
Time: 11:21:08
(UTC+00:00)

Vanguard 2 Rocket - Pass Details

Date: 19 December 2019
Orbit: 554 x 3326 km, 32.9° (Epoch: 17 January)

Event Time Altitude Azimuth Distance (km) Brightness Sun altitude
Rises 15:36:53 0° 236° (SW) 7,296 14.6 -5.1°
Reaches altitude 10° 15:42:53 10° 227° (SW) 6,147 12.9 -5.8°
Maximum altitude 15:57:28 30° 177° (S) 3,941 10.4 -7.6°
Drops below altitude 10° 16:08:00 10° 123° (ESE) 4,409 10.1 -9.0°
Sets 16:11:26 0° 112° (ESE) 5,032 10.3 -9.4°
